Location: Eldred Sherwood Park Lake Dam
(42.9416°N, 93.5655°W)
Time: 20:14:41
(UTC+00:00)

Transit 4A - Pass Details

Date: 21 November 2024
Orbit: 862 x 980 km, 66.8° (Epoch: 02 December)

Event Time Altitude Azimuth Distance (km) Brightness Sun altitude
Rises 02:20:58 0° 330° (NNW) 3,671 11.4 -39.0°
Reaches altitude 10° 02:23:33 10° 333° (NNW) 2,729 10.6 -39.5°
Enters shadow 02:25:08 19° 336° (NNW) 2,172 10.0 -39.8°
